Powrót do katalogu

STARLINK-35658

AktywnyŁącznośćVLEO
NORAD 66126·PAYLOAD·🇺🇸 United States

Wystrzelony Oct 22, 2025 z Vandenberg Space Force Base

Loading…

Następne Przeloty (najbliższe 24 godziny)

TLE

ŚwieżeSource: CelesTrak SupGP

Epoka: Sep 14, 2026, 22:53 UTC

1 66126C 25237N   26257.95395833  .00027724  00000+0  81903-3 0  2579
2 66126  53.1577 237.3200 0001211  95.3019 231.0365 15.34379794    13

Śledź STARLINK-35658 w czasie rzeczywistym z AllMySat

Download on the App Store